UPSVAC Airport Information Service

Minneapolis Saint Paul International Airport

ICAO: KMSP Country: United States
Latitude: 44.882 Longitude: -93.2217
Latest Arrival : UPSJUMP (KSDF-KMSP) Latest Departure : UPS1293 (KMSP-KSDF)


WX CaptureLIVE
Data provided by noaa.gov | Fetched at 17:28:21

METAR : KMSP 191653Z 20014G29KT 10SM BKN180 BKN200 29/18 A2987 RMK AO2 PK WND 22029/1651 SLP110 T02940178

TAF : KMSP 191502Z 1915/2018 18016G24KT P6SM SCT200 FM191900 18020G31KT P6SM SCT200 FM200000 16013G22KT P6SM FEW250 WS020/19040KT FM201200 17012KT 6SM -SHRA BKN150


Runway Data for KMSP
Data provided by openaviationdata.com

Runway ID Mag Var Hdg Length Elevation Surface ILS Freq ILS Id ILS Slope
4 2 42° 10999 ft 841 ft Concrete 109.3 IAPL 3
12L 2 119° 8190 ft 841 ft Asphalt 110.7 IPJL 3
12R 2 119° 9988 ft 841 ft Asphalt 110.3 IHKZ 3
22 2 222° 10999 ft 841 ft Concrete 110.5 ISIJ 0
30L 2 299° 9988 ft 841 ft Asphalt 110.3 IMSP 3
30R 2 299° 8190 ft 841 ft Asphalt 110.7 IINN 3

Minneapolis Saint Paul International Airport, United States
Use only for reference purposes



Not for navigational purposes.